Location: Newark
(44.3681°N, 100.3364°W)
Time: 14:34:33
(UTC+00:00)

SR - Pass Details

Date: 01 March 2020
Orbit: 578 x 878 km, 66.7° (Epoch: 06 April)

Event Time Altitude Azimuth Distance (km) Brightness Sun altitude
Rises 03:18:44 0° 334° (NNW) 3,319 ? -30.7°
Reaches altitude 10° 03:21:53 10° 351° (N) 2,330 ? -31.2°
Enters shadow 03:23:37 16° 7° (N) 1,905 ? -31.5°
